TimeEST,TemperatureF,Dew PointF,Humidity,Sea Level PressureIn,VisibilityMPH,Wind Direction,Wind SpeedMPH,Gust SpeedMPH,PrecipitationIn,Events,Conditions,WindDirDegrees,DateUTC
12:53 AM,39.0,28.9,67,30.13,10.0,NW,6.9,-,N/A,,Clear,310,2012-11-09 05:53:00
1:53 AM,39.0,28.9,67,30.14,10.0,NNW,10.4,-,N/A,,Clear,330,2012-11-09 06:53:00
2:53 AM,37.9,28.9,70,30.15,10.0,NW,9.2,-,N/A,,Clear,320,2012-11-09 07:53:00
3:53 AM,37.0,28.9,73,30.17,10.0,NW,9.2,-,N/A,,Clear,320,2012-11-09 08:53:00
4:53 AM,37.0,28.9,73,30.19,10.0,NNW,4.6,-,N/A,,Clear,330,2012-11-09 09:53:00
5:53 AM,37.0,28.9,73,30.20,10.0,NW,8.1,-,N/A,,Clear,320,2012-11-09 10:53:00
6:22 AM,37.4,28.4,70,30.16,10.0,NW,4.6,-,N/A,,Mostly Cloudy,320,2012-11-09 11:22:00
6:53 AM,35.1,28.9,78,30.22,10.0,WNW,6.9,-,N/A,,Partly Cloudy,300,2012-11-09 11:53:00
7:53 AM,37.9,30.9,76,30.24,10.0,WNW,8.1,-,N/A,,Scattered Clouds,300,2012-11-09 12:53:00
8:53 AM,43.0,32.0,65,30.25,10.0,NW,13.8,-,N/A,,Clear,310,2012-11-09 13:53:00
9:53 AM,46.0,33.1,61,30.26,10.0,NW,11.5,-,N/A,,Clear,310,2012-11-09 14:53:00
10:53 AM,48.0,32.0,54,30.27,10.0,NW,9.2,-,N/A,,Clear,310,2012-11-09 15:53:00
11:53 AM,51.1,33.1,50,30.24,10.0,NNW,11.5,20.7,N/A,,Clear,330,2012-11-09 16:53:00
12:53 PM,53.1,33.1,47,30.22,10.0,NW,16.1,-,N/A,,Clear,310,2012-11-09 17:53:00
1:53 PM,54.0,33.1,45,30.20,10.0,WNW,9.2,-,N/A,,Clear,300,2012-11-09 18:53:00
2:53 PM,55.0,33.1,43,30.19,10.0,WNW,5.8,-,N/A,,Clear,300,2012-11-09 19:53:00
3:53 PM,55.0,33.1,43,30.19,10.0,Calm,Calm,-,N/A,,Clear,0,2012-11-09 20:53:00
4:53 PM,52.0,34.0,50,30.19,10.0,Calm,Calm,-,N/A,,Clear,0,2012-11-09 21:53:00
5:53 PM,51.1,33.1,50,30.21,10.0,Calm,Calm,-,N/A,,Clear,0,2012-11-09 22:53:00
6:53 PM,51.1,33.1,50,30.22,10.0,SSW,3.5,-,N/A,,Clear,210,2012-11-09 23:53:00
7:53 PM,46.9,33.1,59,30.24,10.0,Calm,Calm,-,N/A,,Clear,0,2012-11-10 00:53:00
8:53 PM,45.0,33.1,63,30.24,10.0,Calm,Calm,-,N/A,,Clear,0,2012-11-10 01:53:00
9:53 PM,44.1,33.1,65,30.24,9.0,South,3.5,-,N/A,,Clear,190,2012-11-10 02:53:00
10:53 PM,43.0,33.1,68,30.25,9.0,SSE,4.6,-,N/A,,Clear,150,2012-11-10 03:53:00
11:53 PM,39.9,33.1,77,30.26,7.0,Calm,Calm,-,N/A,,Clear,0,2012-11-10 04:53:00